Погода в Курджипской

Россия / Республика Адыгея     44°27′23″N   40°03′00″E
темп.,
°C
ветер,
м/с
пор.,
м/с
влажн.,
%
обл.,
%
осадки,
мм/ч
давл.,
гПа
погр.,
м
22 января, сб
сб2200:00−2ююв2288100 0.0 101334
03:00−3в129398 0.0 101335
06:00−1св1297100 0.1 101397
09:00−2ссз2597100 4.4 1017358
12:00−2св2390100 1.0 1017489
15:00−2св2495100 2.2 1016336
18:00−2всв3797100 0.8 1016428
21:00−3всв4995100 1.6 1015511
23 января, вс
вс2300:00−3всв3895100 0.2 1014399
03:00−3всв3896100 0.9 1013424
06:00−4всв3695100 0.9 1012304
09:00−4св1295100 1.1 1012139
12:00−1св1292100 0.4 1012278
15:000св2492100 0.5 1011400
18:00−1св2397100 0.1 1012128
21:00−2в1299100 0.2 101246
24 января, пн
пн2400:00−4юв1199100 0.0 101311
03:00−6ююв119886 0.0 101412
06:00−1юв1197100 0.1 101341
09:00−1ю0099100 0.5 101535
12:00+2зсз1199100 0.3 1016180
15:00+2сз14100100 1.5 1018359
18:000зюз3897100 0.4 1021455
21:00−1зюз2596100 0.4 1023205
25 января, вт
вт2500:00−1з0298100 0.0 1024102
03:00−2юв1198100 0.0 102532
06:00−3ю1296100 0.0 102639
09:00−2ююв129119 0.0 102751
12:00+2юв018671 0.0 1027378
15:00+2св2389100 0.1 1026452
18:00−1всв3892100 0.1 1026278
21:00−2в2692100 0.1 1024176
26 января, ср
ср2600:00−2в2592100 0.0 1023198
03:00−2в1394100 0.0 1022106
06:00−3вюв0194100 0.0 102039
09:00−2зюз1191100 0.0 1019124
12:00+1ссз0087100 0.0 1018329
15:00+1ссз1186100 0.0 1017344
18:00−1ссз1198100 0.1 101834
21:00−1в009874 0.4 101751